EW6715 Weather Reports


Display with metric or nautical units.
time (UTC)temp
F
wind
direction
speed
MPH
gust
MPH
rain 1hr
in
rain 24hr
in
rain mn
in
humidity
%
barometer
mb
20260504081548 49 0.0 0.0 0.00 0.00 0.00 70 1015.4
20260504044542 48 0.0 0.0 0.00 0.00 0.00 64 1015.9
20260504043052 48 0.0 0.0 0.00 0.00 0.00 61 1016.0
20260504041547 48 0.0 0.0 0.00 0.00 0.00 59 1016.0
20260504040049 48 0.0 0.0 0.00 0.00 0.00 58 1015.8
20260504034548 49 0.0 0.0 0.00 0.00 0.00 58 1016.0
20260504033046 49 0.0 0.0 0.00 0.00 0.00 57 1015.8
20260504031545 50 0.0 0.0 0.00 0.00 0.00 54 1015.7
20260504030046 50 0.0 0.0 0.00 0.00 0.00 51 1015.7
20260504024549 51 0.0 0.0 0.00 0.00 0.00 51 1015.5
20260504023050 51 0.0 0.0 0.00 0.00 0.00 53 1015.5
20260504021546 51 0.0 0.0 0.00 0.00 0.00 53 1015.5
20260504020124 51 0.0 0.0 0.00 0.00 0.00 54 1015.4
20260504014558 52 0.0 0.0 0.00 0.00 0.00 54 1015.2
20260504013058 53 0.0 0.0 0.00 0.00 0.00 53 1015.3
20260504011550 53 0.0 0.0 0.00 0.00 0.00 48 1015.1
20260504010047 54 0.0 0.0 0.00 0.00 0.00 45 1015.1
20260504004616 54 0.0 0.0 0.00 0.00 0.00 44 1015.1
20260504003050 55 0.0 0.0 0.00 0.00 0.00 43 1014.9
20260504001615 56 0.0 0.0 0.00 0.00 0.00 41 1014.7
20260504000101 57 0.0 0.0 0.00 0.00 0.00 38 1014.6
20260503234556 58 0.0 0.0 0.00 0.00 0.00 36 1014.4
20260503233047 59 0.0 0.0 0.00 0.00 0.00 36 1014.4
20260503231547 59 0.0 0.0 0.00 0.00 0.00 33 1014.2
20260503230110 60 0.0 0.0 0.00 0.00 0.00 33 1014.2
20260503224549 60 0.0 0.0 0.00 0.00 0.00 32 1014.2
20260503223051 60 0.0 0.0 0.00 0.00 0.00 35 1014.2
20260503221554 60 0.0 0.0 0.00 0.00 0.00 32 1014.3
20260503220053 60 0.0 0.0 0.00 0.00 0.00 31 1014.2
20260503214545 60 0.0 0.0 0.00 0.00 0.00 32 1014.2
20260503213046 60 0.0 0.0 0.00 0.00 0.00 32 1014.4
20260503211544 60 0.0 0.0 0.00 0.00 0.00 33 1014.3
20260503210046 60 0.0 0.0 0.00 0.00 0.00 32 1014.5
20260503204551 60 0.0 0.0 0.00 0.00 0.00 33 1014.5
20260503203059 60 0.0 0.0 0.00 0.00 0.00 33 1014.6
20260503201548 60 0.0 0.0 0.00 0.00 0.00 33 1014.8
20260503200041 60 0.0 0.0 0.00 0.00 0.00 34 1015.0
20260503194548 60 0.0 0.0 0.00 0.00 0.00 33 1015.2
20260503193043 60 0.0 0.0 0.00 0.00 0.00 34 1015.4
20260503191551 60 0.0 0.0 0.00 0.00 0.00 34 1015.5
20260503190043 60 0.0 0.0 0.00 0.00 0.00 35 1015.6
20260503184547 59 0.0 0.0 0.00 0.00 0.00 37 1015.9
20260503183040 57 0.0 0.0 0.00 0.00 0.00 38 1016.1
20260503181549 58 0.0 0.0 0.00 0.00 0.00 36 1016.4
20260503180052 58 0.0 0.0 0.00 0.00 0.00 39 1016.2
20260503174541 57 0.0 0.0 0.00 0.00 0.00 37 1016.3
20260503173048 56 0.0 0.0 0.00 0.00 0.00 38 1016.5
20260503171548 55 0.0 0.0 0.00 0.00 0.00 40 1016.5